Afton Municipal Airport, WY

9:19 AM MST on December 09, 2019 (GMT -0700)
Afton Municipal

Weather History for KAFO - August, 2019

Change the Weather History Date:

Saturday, August 10, 2019

  Actual Average Record
Temperature  
Mean Temperature 60 °F -  
Max Temperature 80 °F 82 °F 91 °F (2018)
Min Temperature 41 °F 41 °F 35 °F (2016)
Degree Days  
Heating Degree Days 4    
Growing Degree Days 10 (Base 50)    
Moisture  
Dew Point 43 °F    
Average Humidity 59    
Maximum Humidity 100    
Minimum Humidity 24    
Precipitation  
Precipitation 0.00 in - - ()
Sea Level Pressure  
Sea Level Pressure 30.12 in    
Wind  
Wind Speed 4 mph (South)    
Max Wind Speed 16 mph    
Max Gust Speed 26 mph    
Visibility 10 miles    
Events Rain , Thunderstorm    
Averages and records for this station are not official NWS values.
T = Trace of Precipitation, MM = Missing Value Source: NWS Daily Summary

Daily Weather History Graph

Daily Weather History Graph

Search for Another Location

Airport or City:

Astronomy

Aug. 10, 2019 Rise Set
Actual Time 6:24 AM MDT 8:32 PM MDT
Civil Twilight 5:53 AM MDT 9:03 PM MDT
Nautical Twilight 5:15 AM MDT 9:41 PM MDT
Astronomical Twilight 4:33 AM MDT 10:23 PM MDT
Moon 5:21 PM MDT (8/10) 2:01 AM MDT (8/10)
Length of Visible Light 15h 10m
Length of Day
14h 08m
Waxing Gibbous, 80% of the Moon is Illuminated
Aug 10
Waxing Gibbous
Aug 15
Full
Aug 23
Last Quarter
Aug 30
New
Sep 5
First Quarter

Hourly Weather History & Observations

Time (MDT) Temp. Windchill Dew Point Humidity Pressure Visibility Wind Dir Wind Speed Gust Speed Precip Events Conditions
12:15 AM 48.2 °F - 41.0 °F 76% 30.13 in 10.0 mi South 3.5 mph - N/A Thunderstorm Clear
12:35 AM 50.0 °F - 39.2 °F 66% 30.13 in 10.0 mi Calm Calm - N/A   Clear
12:55 AM 48.2 °F - 41.0 °F 76% 30.13 in 10.0 mi Calm Calm - N/A   Scattered Clouds
1:15 AM 48.2 °F - 41.0 °F 76% 30.13 in 10.0 mi Calm Calm - N/A   Scattered Clouds
1:35 AM 50.0 °F - 41.0 °F 71% 30.13 in 10.0 mi Calm Calm - N/A   Scattered Clouds
1:55 AM 46.4 °F 45.2 °F 41.0 °F 81% 30.13 in 10.0 mi South 3.5 mph - N/A   Clear
2:15 AM 44.6 °F 42.2 °F 41.0 °F 87% 30.13 in 10.0 mi South 4.6 mph - N/A   Scattered Clouds
2:35 AM 44.6 °F 43.1 °F 41.0 °F 87% 30.13 in 10.0 mi SSE 3.5 mph - N/A   Clear
2:55 AM 44.6 °F 42.2 °F 41.0 °F 87% 30.13 in 10.0 mi South 4.6 mph - N/A   Clear
3:15 AM 42.8 °F 41.1 °F 39.2 °F 87% 30.13 in 10.0 mi SE 3.5 mph - N/A   Clear
3:35 AM 44.6 °F - 39.2 °F 81% 30.13 in 10.0 mi Calm Calm - N/A   Clear
3:55 AM 42.8 °F 41.1 °F 39.2 °F 87% 30.13 in 10.0 mi WSW 3.5 mph - N/A   Clear
4:15 AM 42.8 °F 41.1 °F 39.2 °F 87% 30.13 in 10.0 mi SE 3.5 mph - N/A   Clear
4:35 AM 41.0 °F - 39.2 °F 93% 30.13 in 10.0 mi Calm Calm - N/A   Scattered Clouds
4:55 AM 42.8 °F 41.1 °F 39.2 °F 87% 30.14 in 10.0 mi SSW 3.5 mph - N/A   Scattered Clouds
5:15 AM 41.0 °F - 41.0 °F 100% 30.16 in 10.0 mi Calm Calm - N/A   Scattered Clouds
5:35 AM 41.0 °F - 41.0 °F 100% 30.17 in 10.0 mi Calm Calm - N/A   Mostly Cloudy
5:55 AM 42.8 °F 38.6 °F 41.0 °F 93% 30.17 in 10.0 mi SSW 6.9 mph - N/A   Scattered Clouds
6:15 AM 42.8 °F 40.1 °F 42.8 °F 100% 30.17 in 10.0 mi South 4.6 mph - N/A   Scattered Clouds
6:35 AM 44.6 °F - 41.0 °F 87% 30.17 in 10.0 mi Calm Calm - N/A   Clear
6:55 AM 44.6 °F 42.2 °F 41.0 °F 87% 30.18 in 10.0 mi SSW 4.6 mph - N/A   Clear
7:15 AM 46.4 °F 45.2 °F 42.8 °F 87% 30.17 in 10.0 mi NE 3.5 mph - N/A   Mostly Cloudy
7:35 AM 46.4 °F - 42.8 °F 87% 30.17 in 10.0 mi Calm Calm - N/A   Scattered Clouds
7:55 AM 50.0 °F - 44.6 °F 82% 30.17 in 10.0 mi Calm Calm - N/A   Scattered Clouds
8:15 AM 48.2 °F - 44.6 °F 87% 30.17 in 10.0 mi Calm Calm - N/A   Clear
8:35 AM 51.8 °F - 44.6 °F 76% 30.18 in 10.0 mi Calm Calm - N/A   Clear
8:55 AM 53.6 °F - 44.6 °F 72% 30.17 in 10.0 mi Calm Calm - N/A   Clear
9:15 AM 57.2 °F - 44.6 °F 63% 30.17 in 10.0 mi Calm Calm - N/A   Clear
9:35 AM 59.0 °F - 44.6 °F 59% 30.16 in 10.0 mi Calm Calm - N/A   Clear
9:55 AM 62.6 °F - 42.8 °F 48% 30.16 in 10.0 mi Calm Calm - N/A   Scattered Clouds
10:15 AM 64.4 °F - 46.4 °F 52% 30.15 in 10.0 mi Calm Calm - N/A   Clear
10:35 AM 60.8 °F - 50.0 °F 68% 30.16 in 10.0 mi Calm Calm - N/A   Clear
10:55 AM 66.2 °F - 48.2 °F 52% 30.15 in 10.0 mi Calm Calm - N/A   Scattered Clouds
11:15 AM 68.0 °F - 46.4 °F 46% 30.15 in 10.0 mi Calm Calm - N/A   Scattered Clouds
11:35 AM 66.2 °F - 50.0 °F 56% 30.14 in 10.0 mi South 3.5 mph - N/A   Scattered Clouds
11:55 AM 69.8 °F - 44.6 °F 40% 30.15 in 10.0 mi SSE 12.7 mph 18.4 mph N/A   Mostly Cloudy
12:15 PM 71.6 °F - 41.0 °F 33% 30.14 in 10.0 mi SSE 13.8 mph - N/A   Mostly Cloudy
12:35 PM 71.6 °F - 39.2 °F 31% 30.16 in 10.0 mi SSE 16.1 mph - N/A Rain Light Rain
12:55 PM 73.4 °F - 41.0 °F 31% 30.14 in 10.0 mi SSE 11.5 mph 15.0 mph N/A   Mostly Cloudy
1:15 PM 73.4 °F - 41.0 °F 31% 30.14 in 10.0 mi SSE 13.8 mph 26.5 mph N/A   Scattered Clouds
1:35 PM 73.4 °F - 42.8 °F 33% 30.13 in 10.0 mi SSE 16.1 mph 24.2 mph N/A   Mostly Cloudy
1:55 PM 75.2 °F - 42.8 °F 31% 30.13 in 10.0 mi South 16.1 mph 21.9 mph N/A   Clear
2:15 PM 77.0 °F - 41.0 °F 28% 30.12 in 10.0 mi SSE 15.0 mph 19.6 mph N/A   Clear
2:35 PM 77.0 °F - 42.8 °F 29% 30.11 in 10.0 mi SSE 11.5 mph 19.6 mph N/A   Clear
2:55 PM 78.8 °F - 41.0 °F 26% 30.10 in 10.0 mi SE 9.2 mph 16.1 mph N/A   Clear
3:15 PM 78.8 °F - 42.8 °F 28% 30.10 in 10.0 mi SSE 12.7 mph 16.1 mph N/A   Clear
3:35 PM 77.0 °F - 41.0 °F 28% 30.08 in 10.0 mi SSE 5.8 mph - N/A   Scattered Clouds
3:55 PM 78.8 °F - 44.6 °F 30% 30.07 in 10.0 mi Calm Calm - N/A   Scattered Clouds
4:15 PM 78.8 °F - 39.2 °F 24% 30.07 in 10.0 mi Calm Calm - N/A   Scattered Clouds
4:30 PM 78.8 °F - 44.6 °F 30% 30.06 in 10.0 mi Calm Calm - N/A   Scattered Clouds
4:55 PM 80.6 °F - 42.8 °F 26% 30.06 in 10.0 mi SSW 4.6 mph - N/A   Scattered Clouds
5:10 PM 80.6 °F - 44.6 °F 28% 30.05 in 10.0 mi SSW 10.4 mph - N/A   Scattered Clouds
5:35 PM 78.8 °F - 39.2 °F 24% 30.05 in 10.0 mi SSW 10.4 mph 20.7 mph N/A   Scattered Clouds
5:55 PM 78.8 °F - 42.8 °F 28% 30.04 in 10.0 mi SW 13.8 mph - N/A   Clear
6:15 PM 77.0 °F - 44.6 °F 32% 30.04 in 10.0 mi SSW 5.8 mph - N/A   Clear
6:35 PM 77.0 °F - 44.6 °F 32% 30.04 in 10.0 mi SW 9.2 mph - N/A   Clear
6:55 PM 75.2 °F - 42.8 °F 31% 30.04 in 10.0 mi West 9.2 mph - N/A   Clear
7:10 PM 75.2 °F - 42.8 °F 31% 30.04 in 10.0 mi WSW 5.8 mph - N/A   Clear
7:35 PM 71.6 °F - 50.0 °F 46% 30.04 in 10.0 mi Calm Calm - N/A   Clear
7:55 PM 69.8 °F - 46.4 °F 43% 30.05 in 10.0 mi North 5.8 mph - N/A   Clear
8:15 PM 68.0 °F - 42.8 °F 40% 30.06 in 10.0 mi North 5.8 mph - N/A   Scattered Clouds
8:35 PM 68.0 °F - 39.2 °F 35% 30.06 in 10.0 mi NNE 4.6 mph - N/A   Scattered Clouds
8:55 PM 64.4 °F - 41.0 °F 42% 30.07 in 10.0 mi ESE 5.8 mph - N/A   Clear
9:15 PM 57.2 °F - 44.6 °F 63% 30.08 in 10.0 mi SW 4.6 mph - N/A   Clear
9:35 PM 55.4 °F - 44.6 °F 67% 30.09 in 10.0 mi Calm Calm - N/A   Clear
9:55 PM 53.6 °F - 46.4 °F 77% 30.10 in 10.0 mi WSW 4.6 mph - N/A   Clear
10:15 PM 55.4 °F - 44.6 °F 67% 30.10 in 10.0 mi South 3.5 mph - N/A   Clear
10:35 PM 53.6 °F - 44.6 °F 72% 30.10 in 10.0 mi Calm Calm - N/A   Clear
10:55 PM 53.6 °F - 44.6 °F 72% 30.10 in 10.0 mi SSE 4.6 mph - N/A   Scattered Clouds
11:15 PM 55.4 °F - 44.6 °F 67% 30.09 in 10.0 mi SSE 3.5 mph - N/A   Scattered Clouds
11:35 PM 55.4 °F - 42.8 °F 63% 30.09 in 10.0 mi SSE 4.6 mph - N/A   Scattered Clouds
11:55 PM 55.4 °F - 42.8 °F 63% 30.09 in 10.0 mi Calm Calm - N/A   Scattered Clouds